Regional Weather Roundup
Issued by NWS

Home | Current Version | Previous Version | Text Only | Print | Product List | Glossary On
Versions: 1 2 3 4 5 6 7 8 9 10 11 12 13 14 15 16 17 18 19 20 21 22 23 24 25 26 27 28 29 30 31 32 33 34 35 36 37 38 39 40 41 42 43 44 45 46 47 48 49 50
000
ASUS44 KBMX 281510
RWRAL

ALABAMA REGIONAL WEATHER ROUNDUP
NATIONAL WEATHER SERVICE BIRMINGHAM AL
1000 AM CDT TUE APR 28 2015

NOTE: "FAIR" INDICATES FEW OR NO CLOUDS BELOW 12,000 FEET
WITH NO SIGNIFICANT WEATHER AND/OR OBSTRUCTIONS TO VISIBILITY.

THE REMARK "TC" DENOTES TEMPERATURE IN DEGREES CELSIUS.

ALZ001>011-014-016>018-020-281600-
NORTH ALABAMA

CITY           SKY/WX    TMP DP  RH WIND       PRES   REMARKS
MUSCLE SHOALS  PTSUNNY   60  42  51 E8        29.96F
HUNTSVILLE     PTSUNNY   65  41  41 E13       29.94F
DECATUR        PTSUNNY   61  42  49 NE8       29.95F
HALEYVILLE       N/A     60  44  55 MISG      29.94F
GADSDEN        MOSUNNY   63  43  48 NE12      29.92S
$$

ALZ012-013-022-023-030>036-040>044-281600-
WEST CENTRAL ALABAMA

CITY           SKY/WX    TMP DP  RH WIND       PRES   REMARKS
TUSCALOOSA     MOSUNNY   65  43  44 NE12      29.88F
$$

ALZ015-024>027-033>036-040>044-281600-
CENTRAL ALABAMA

CITY           SKY/WX    TMP DP  RH WIND       PRES   REMARKS
BIRMINGHAM     MOSUNNY   65  44  46 NE8       29.91F
MONTGOMERY     MOSUNNY   70  52  52 E8        29.85S
SHELBY CO ARPT SUNNY     65  46  50 E5        29.89S
MAXWELL AFB    MOSUNNY   69  53  54 E10       29.84S
GREENVILLE     FAIR      71  56  58 E10       29.82F
$$

ALZ019-021-028-029-037-038-045>048-281600-
EAST CENTRAL ALABAMA

CITY           SKY/WX    TMP DP  RH WIND       PRES   REMARKS
ANNISTON       SUNNY     65  48  54 E9        29.91F
ALEXANDER CITY SUNNY     69  49  48 E8        29.88F
AUBURN         SUNNY     66  52  59 E12G20    29.89S
$$

ALZ051>064-281600-
SOUTHWEST ALABAMA

CITY           SKY/WX    TMP DP  RH WIND       PRES   REMARKS
MOBILE         PTSUNNY   69  59  70 E3        29.82S
BROOKLEY FIELD MOSUNNY   67  57  70 NE6       29.82S
EVERGREEN      SUNNY     69  55  60 E7        29.82S
$$

ALZ049-050-065>069-281600-
SOUTHEAST ALABAMA

CITY           SKY/WX    TMP DP  RH WIND       PRES   REMARKS
DOTHAN         CLOUDY    67  60  78 E15       29.86R
OZARK          CLOUDY    69  57  66 E12       29.82S
TROY           MOSUNNY   70  56  61 E7        29.85R
EUFAULA        FAIR      72  60  66 E8        29.85S
$$



USA.gov is the U.S. government's official web portal to all federal, state and local government web resources and services.